Terminal Aerodrome Forecast
Issued by NWS

Home | Current Version | Previous Version | Text Only | Print | Product List | Glossary On
Versions: 1 2 3 4 5 6 7 8 9 10 11 12 13 14 15 16 17 18 19 20 21 22 23
000
FTUS44 KLZK 010300 AAA
TAFHRO
TAF AMD
KHRO 010358Z 0104/0124 VRB05KT P6SM VCSH SCT025 OVC040
      TEMPO 0104/0108 4SM BR BKN005
     FM010800 VRB03KT 3SM BR SCT010 OVC025
      TEMPO 0108/0112 1/2SM FG BKN005
     FM011500 09005KT P6SM SCT020 BKN035 BKN250=

USA.gov is the U.S. government's official web portal to all federal, state and local government web resources and services.